IRNSS-1F

Last updated on Nov. 15, 2019, 4:20 a.m. UTC

1 41384U 16015A   19318.49036352  .00000175  00000-0  00000+0 0  9999
2 41384   2.4709 232.2830 0017200 184.2791 205.7538  1.00272852 13557
UTC
Height (km)
Latitude
Longitude
Inclination
Orbital Period
UTC large
Height (km)
Speed (km/s)
/
Latitude / Longitude
Inclination (degrees)
Orbital Period (minutes)
Azimuth
Elevation
Range (km)
Doppler Factor
iOS Compass Heading
iOS Angle

Next 30 passes for location: Hong Kong

Rise time Rise Azimuth (degrees) Set time Set Azimuth (degrees) Duration Max altitude (degrees)

No matching passes for this satellites